Theta_e
303 303 303 303 304 304 304 305 305 304 303 300 298 304 305 300 297 312 314 316 313 300 292 295 291 293 295 298 299 300 298 296 297 295 297 294 297 295 295 294 292 295 292 291 289 290 287 289 286 288 289 290 295 297 297 298 296 293 288 293 292 299 282 281 282 287 288 291 292 293 293 293 289 289 290 288 285 287 284 281 283 279 280 280 279 276 282
303 303 303 303 303 304 304 304 304 304 303 299 300 302 302 301 302 304 309 312 304 295 284 283 284 292 296 297 296 299 296 294 293 294 296 296 294 293 293 293 295 290 293 290 288 292 280 292 289 286 290 288 297 297 297 297 292 291 290 288 293 283 285 284 278 277 278 281 287 287 290 289 286 283 286 291 290 290 290 288 286 279 282 283 278 273 281
302 303 302 303 303 303 304 304 304 304 303 303 300 299 301 301 305 306 305 305 300 290 293 291 286 291 293 293 292 293 294 295 295 295 294 296 295 294 292 293 294 293 293 290 290 292 289 285 292 290 291 289 294 294 295 297 294 298 298 302 295 285 284 282 276 271 271 270 271 273 276 281 282 288 287 288 288 286 283 278 279 277 280 285 279 278 284
302 302 302 302 303 303 303 303 303 303 303 304 302 304 303 296 285 294 295 298 296 298 298 297 293 288 290 284 290 292 290 294 296 296 295 297 297 293 294 293 293 291 291 289 290 289 293 289 288 288 288 290 293 295 295 298 297 301 304 299 295 284 288 284 281 278 276 278 282 287 287 283 278 282 285 285 287 287 286 282 279 276 278 277 280 283 282
302 301 302 302 302 303 303 303 303 302 303 304 300 303 305 303 290 286 284 293 294 292 294 294 293 287 292 282 291 288 291 292 294 296 291 297 295 296 295 295 290 288 289 287 288 291 288 291 289 289 288 292 292 295 295 295 301 305 300 299 290 284 280 284 285 284 284 286 285 286 285 282 284 284 284 286 285 286 283 278 278 282 279 275 282 284 281
301 301 301 301 302 302 303 302 302 302 302 304 306 298 298 288 291 295 296 289 284 286 286 292 291 294 294 288 293 290 289 291 287 294 295 295 295 291 294 294 293 291 290 289 283 288 288 289 283 290 291 290 292 291 294 293 301 302 295 297 289 283 278 284 284 283 285 285 285 286 286 286 285 285 285 284 284 283 280 279 284 284 277 276 280 282 280
301 301 301 301 302 302 302 302 302 301 301 304 302 293 297 297 294 296 295 287 290 290 292 294 293 292 294 290 293 290 290 289 292 292 293 293 293 294 282 290 291 291 292 289 285 286 280 279 289 289 287 289 288 286 290 293 294 293 290 291 290 285 279 284 285 283 285 286 286 287 285 284 284 284 285 285 284 281 282 282 283 282 281 282 282 281 280
300 301 301 301 301 302 302 302 302 301 301 305 301 296 292 290 291 290 294 292 291 292 293 294 293 290 296 286 292 292 292 289 292 293 291 284 290 294 289 289 290 290 291 289 285 288 289 288 282 288 287 285 289 286 288 286 291 291 289 290 290 286 280 288 285 280 282 285 286 285 285 284 282 284 285 283 283 284 284 282 282 283 280 282 281 280 281
300 300 300 301 301 301 302 302 302 301 301 301 300 298 297 296 298 297 292 287 290 293 292 290 289 285 288 286 291 292 292 291 292 290 293 290 288 290 287 289 290 290 290 288 288 290 291 290 288 290 289 282 290 285 287 291 287 289 288 289 288 286 279 287 284 277 275 284 283 284 284 283 282 281 281 281 281 279 281 281 282 279 279 280 278 279 280
300 300 300 300 300 301 301 301 302 300 301 297 297 296 299 298 299 299 294 285 292 289 292 291 289 283 290 292 291 290 290 291 291 283 293 293 293 292 291 292 288 288 288 287 289 290 291 291 292 292 291 291 290 290 291 290 288 285 286 287 283 285 281 279 279 276 275 283 285 283 279 277 276 276 276 281 282 284 284 284 285 284 283 279 279 279 285
299 299 300 300 300 300 301 301 301 301 298 293 293 295 297 294 292 293 293 285 285 290 288 288 287 292 291 294 292 293 291 291 291 284 283 292 292 294 292 290 287 283 286 290 293 293 292 292 292 292 291 290 289 289 290 291 290 289 287 285 284 285 283 279 281 275 275 280 281 280 275 271 272 280 285 287 282 282 281 280 283 285 286 282 285 285 286
299 299 299 300 300 300 300 301 301 301 299 296 296 296 299 299 296 294 287 283 284 290 288 285 288 290 290 293 293 290 290 290 291 294 289 290 291 293 292 290 289 280 292 294 293 292 294 294 292 291 291 290 289 290 290 288 289 290 290 286 283 282 282 279 281 276 274 276 277 274 270 273 280 285 289 289 288 287 285 285 286 287 287 288 286 286 287
299 299 299 299 300 299 300 301 301 301 301 297 296 293 298 300 294 291 288 286 282 287 284 287 291 291 292 293 292 291 291 291 292 293 294 290 290 292 293 291 288 290 296 293 293 290 287 284 285 286 286 288 288 288 288 287 287 289 289 289 285 281 279 280 279 279 278 275 273 267 272 279 286 286 288 290 289 287 286 283 285 289 288 288 286 287 289
299 299 299 299 299 299 299 300 300 301 301 300 295 295 299 298 293 289 287 283 283 288 290 287 289 290 291 291 291 290 290 290 290 292 289 293 291 291 293 294 294 295 294 292 290 287 282 282 278 279 281 284 283 282 286 288 288 288 288 288 288 285 283 281 277 279 274 273 271 274 280 281 282 281 283 284 281 283 281 277 279 288 288 288 287 288 289
298 299 299 300 300 299 299 299 300 300 301 300 296 296 298 298 297 292 292 288 283 286 288 281 287 289 290 290 290 287 285 287 287 285 291 293 291 295 293 294 295 294 294 289 284 285 281 280 276 274 277 276 271 274 285 282 287 290 289 289 289 287 282 282 279 277 279 275 272 272 271 271 275 284 291 293 293 291 288 282 279 287 289 290 288 288 288
298 299 299 300 300 300 299 299 300 300 300 300 296 294 297 300 298 295 292 287 284 281 286 291 292 290 287 288 290 287 284 283 285 286 286 288 289 291 292 294 295 294 293 290 286 281 280 277 274 274 271 274 280 279 275 283 282 287 287 289 289 289 288 285 280 277 277 277 274 272 270 274 279 283 289 291 291 291 287 279 276 284 288 289 288 288 288
298 299 299 299 300 300 299 299 299 300 300 300 294 294 294 301 297 293 290 289 287 283 291 293 292 290 287 286 288 286 287 282 284 281 280 281 286 288 290 292 294 294 293 286 284 281 279 277 279 278 279 282 278 276 281 280 278 280 286 286 286 284 284 284 280 278 278 275 273 272 275 274 282 288 288 290 289 289 280 271 271 284 287 289 288 288 288
299 298 298 299 299 299 299 299 300 300 300 300 296 293 294 300 299 297 292 290 284 284 291 293 288 286 285 286 285 289 290 289 287 287 282 285 286 286 288 291 287 293 292 283 283 280 278 277 274 275 275 283 284 283 272 279 276 275 277 278 278 279 279 282 278 279 279 279 275 276 277 283 288 289 290 290 292 284 273 270 276 286 287 289 289 289 289
298 298 298 298 299 299 299 299 300 300 300 300 297 295 294 297 299 298 292 290 288 283 290 293 293 291 291 293 290 291 290 288 287 281 281 281 285 288 290 290 291 281 289 282 283 279 278 277 282 280 278 280 283 275 281 277 276 281 281 277 277 277 277 280 278 276 275 275 274 274 276 284 289 290 292 292 285 272 272 280 288 287 288 290 290 290 289
298 298 299 298 298 299 299 299 299 300 300 300 297 291 293 297 299 300 293 287 287 285 289 290 292 288 291 289 286 285 286 287 287 283 280 279 287 288 284 281 286 287 284 284 279 282 279 278 279 283 279 279 282 284 278 279 283 280 280 282 277 278 276 275 275 277 277 276 272 272 268 280 291 290 287 289 279 280 285 287 287 289 288 289 290 290 290
298 298 299 299 298 298 299 299 299 299 299 299 297 293 291 296 299 302 300 294 289 284 285 294 293 291 292 290 291 291 288 284 285 282 284 283 287 284 276 277 281 282 280 282 278 279 281 279 281 280 282 281 282 280 274 274 278 284 282 280 279 283 276 277 278 281 274 273 271 272 279 282 290 287 280 281 285 288 289 289 286 289 290 289 289 289 291
297 298 298 299 298 298 298 299 299 299 300 300 298 294 290 294 296 299 299 296 288 285 287 292 294 292 293 295 294 294 293 291 293 291 285 281 286 284 282 284 284 284 284 285 281 281 282 280 282 278 275 277 280 275 277 274 272 278 284 282 273 282 278 279 276 281 278 275 277 282 283 285 289 289 287 289 290 290 293 292 291 288 289 292 290 290 290
298 298 298 298 298 298 298 298 299 300 300 300 298 293 289 292 294 298 296 290 291 292 293 292 293 294 295 296 297 297 297 297 296 294 292 285 281 284 283 283 283 289 287 288 282 281 281 279 276 281 277 279 278 276 277 275 274 277 275 283 281 284 286 287 283 280 284 284 285 286 285 286 287 289 289 289 288 289 292 291 288 291 290 290 289 290 290
298 298 298 298 298 298 298 298 299 299 300 300 298 294 292 292 293 293 293 292 286 284 286 290 285 282 287 290 294 295 297 296 295 293 295 291 280 280 285 287 289 287 284 288 285 284 282 281 280 281 275 278 279 274 272 272 274 277 278 277 281 283 283 282 277 281 278 273 283 283 284 286 287 287 289 289 291 291 292 291 291 291 292 292 293 292 291
298 298 298 297 298 298 298 299 299 300 300 299 298 298 296 293 294 295 290 285 285 284 280 282 285 290 294 296 297 293 293 295 295 296 294 293 289 284 282 287 290 284 283 287 288 284 283 278 279 279 274 282 280 275 280 277 278 282 275 276 279 277 286 280 281 279 276 277 282 284 285 286 287 286 287 288 289 290 292 292 292 292 293 293 293 293 293
298 298 298 297 297 297 298 298 299 299 299 298 298 294 292 292 294 295 293 292 291 287 282 281 284 293 295 293 292 293 296 296 295 294 295 295 294 292 290 291 290 292 289 289 287 283 281 281 281 281 279 279 285 278 277 281 279 282 278 278 282 282 284 276 280 278 281 283 284 285 285 285 287 289 289 289 290 291 293 293 294 293 292 291 293 294 295
298 298 297 297 297 297 297 298 299 299 298 298 296 295 294 293 295 293 290 290 286 282 283 281 284 289 292 289 293 295 296 294 293 293 293 294 293 292 291 290 288 287 287 286 287 283 283 281 280 279 281 280 284 282 282 280 280 278 277 281 284 282 278 282 279 275 275 276 279 283 278 278 283 286 288 289 291 292 292 292 292 292 291 292 291 292 294
297 297 297 297 297 297 298 298 298 298 298 297 296 295 295 293 294 295 295 293 288 281 282 282 282 286 292 289 294 293 293 293 292 292 291 291 292 292 290 290 289 287 285 283 281 282 281 278 278 281 281 283 281 279 283 283 282 279 279 281 284 280 281 279 276 275 276 281 284 285 284 285 286 288 290 290 291 291 291 291 291 292 292 292 291 291 292
298 297 297 297 298 298 298 298 298 298 298 297 294 293 293 294 295 297 298 298 295 289 286 286 288 287 281 286 293 291 293 293 292 292 292 291 291 291 290 289 288 288 288 285 284 283 282 282 282 281 280 286 282 279 280 276 275 275 279 283 283 284 285 284 283 283 284 286 286 287 286 285 287 289 290 290 291 291 291 292 293 291 292 292 292 292 291
297 298 298 298 298 298 298 298 298 298 298 295 292 290 286 291 297 300 300 301 298 294 284 282 279 282 290 289 288 290 291 293 292 293 293 291 291 290 290 289 289 291 289 284 283 280 282 281 282 285 287 289 280 280 275 276 275 278 283 284 285 285 285 286 286 284 283 287 286 287 287 288 289 290 290 291 292 294 292 292 292 292 293 294 293 291 290
298 298 298 298 298 298 298 298 298 299 298 293 290 282 283 282 291 300 300 300 298 291 285 284 281 285 283 288 289 288 290 291 291 291 292 292 292 291 291 290 289 289 283 283 282 281 283 281 281 282 287 288 284 279 276 275 275 278 282 284 285 285 285 285 286 286 287 288 289 290 290 290 290 290 290 290 292 292 291 292 293 295 294 294 292 291 289
298 298 298 299 299 299 299 299 299 299 296 292 288 287 289 290 294 298 299 298 296 290 283 280 280 280 280 283 289 291 290 292 292 292 289 291 288 291 290 292 285 291 287 283 283 281 281 283 282 283 283 287 285 279 279 277 276 277 282 283 286 286 287 287 287 288 289 290 289 287 286 287 288 287 286 289 291 292 292 292 293 293 295 295 292 292 290
298 299 299 299 300 300 300 300 300 299 296 297 300 300 298 299 299 298 298 296 292 285 288 283 279 281 279 281 288 290 293 290 289 290 285 290 287 288 283 289 289 288 292 285 280 279 282 281 282 280 284 286 281 280 277 277 278 282 284 285 286 287 287 288 288 288 288 289 288 284 284 286 287 289 291 292 292 291 292 293 293 294 294 294 293 293 292
298 299 299 299 300 300 300 301 301 300 300 295 290 292 297 300 299 298 297 294 289 288 286 281 279 278 279 287 281 287 293 284 282 286 279 288 289 286 281 286 284 281 284 282 283 282 283 282 281 281 282 281 282 279 276 279 283 284 285 285 286 286 288 288 288 288 288 289 290 290 289 290 291 291 291 291 291 291 292 291 292 293 292 293 293 293 292
298 299 299 300 301 301 301 301 298 295 291 292 294 297 297 299 300 299 298 291 283 282 282 282 282 278 278 280 279 284 291 285 280 283 279 284 289 283 284 280 281 279 278 289 281 281 280 281 281 278 277 280 278 274 277 280 283 284 284 284 286 286 286 285 285 288 289 290 290 290 290 291 290 289 289 290 289 290 291 291 293 294 292 289 290 292 291
298 299 299 300 301 301 298 298 296 293 292 293 293 300 301 301 299 297 296 296 289 282 281 282 282 279 279 275 276 281 290 283 286 285 284 281 282 288 283 280 275 281 284 281 276 280 278 283 280 275 280 276 274 275 278 282 283 284 285 284 284 286 286 286 287 288 289 291 291 291 291 290 289 289 289 290 290 291 290 290 291 293 291 289 290 292 293
298 299 300 300 300 296 292 290 297 296 292 294 298 303 302 298 298 297 294 292 294 293 284 282 280 279 279 278 281 283 286 276 283 280 280 279 278 280 281 279 275 280 279 277 278 276 279 286 279 275 275 275 276 281 284 285 285 285 285 286 287 288 289 289 289 289 289 290 290 290 288 287 287 289 289 289 290 292 293 292 292 292 292 292 292 292 291
298 300 297 294 291 285 286 287 293 295 299 299 299 294 292 291 284 285 287 285 288 290 285 285 280 282 284 280 276 285 284 279 282 276 278 281 278 277 281 278 278 279 272 274 277 284 281 279 276 275 275 280 284 285 286 286 286 286 287 288 288 289 289 288 289 288 287 287 287 286 286 286 286 287 287 288 290 289 288 290 293 295 294 292 291 291 291
298 294 291 290 287 283 283 288 298 300 297 296 296 286 284 286 283 282 281 283 283 282 284 282 280 283 282 279 281 286 283 277 276 278 274 279 277 272 279 272 278 277 273 273 275 286 275 276 277 276 276 280 280 283 286 287 289 289 289 288 288 289 289 290 291 289 287 286 287 287 287 286 286 287 288 288 289 291 292 291 293 293 291 292 292 291 292
291 287 284 284 283 286 293 296 300 296 293 286 287 284 280 284 281 279 284 280 279 282 282 279 284 283 285 281 279 277 286 279 274 273 275 277 284 274 278 277 277 275 269 270 274 283 276 271 276 276 274 279 280 283 286 286 287 287 286 287 289 291 289 290 290 290 289 288 289 288 289 289 289 288 288 288 288 289 291 293 293 292 293 292 291 293 294
289 288 287 283 288 291 292 294 295 293 286 282 282 282 280 277 281 282 280 276 276 277 285 283 284 281 283 283 282 277 284 286 284 282 279 274 281 280 276 272 280 272 270 270 278 280 278 274 274 273 275 280 282 284 286 286 287 287 289 289 289 292 291 290 290 289 289 288 288 288 288 289 289 289 289 289 290 292 292 292 292 292 293 294 294 294 294
290 290 291 293 292 292 292 290 288 284 284 283 278 275 278 278 280 279 279 274 275 279 281 280 276 278 278 281 281 282 281 287 282 280 278 274 280 277 273 276 278 271 268 275 279 278 276 272 274 275 280 282 282 285 286 286 287 289 290 291 290 291 291 290 289 289 289 288 288 288 288 288 288 288 289 290 289 289 290 292 292 292 291 291 292 292 291
297 296 295 291 289 286 286 281 284 282 276 276 275 272 276 273 276 274 276 280 283 280 281 289 284 286 286 287 282 286 281 286 280 280 278 274 281 279 275 274 273 268 273 279 278 274 272 271 273 277 282 282 283 284 286 287 289 290 289 290 291 291 291 290 289 288 289 289 288 288 288 287 287 287 288 289 289 289 289 291 291 291 291 291 291 290 290
293 292 288 286 283 283 283 272 282 279 276 277 273 269 273 273 276 279 277 278 280 280 283 279 280 280 276 283 280 280 281 282 283 281 278 280 277 273 273 270 271 276 281 276 275 272 273 276 277 280 281 283 284 285 286 287 288 288 288 289 290 291 290 290 290 289 288 289 288 288 288 287 287 287 287 287 288 288 289 290 291 291 291 291 290 290 291
287 284 282 280 278 281 278 270 280 276 270 274 278 276 277 273 275 277 277 281 282 279 282 282 281 281 278 283 282 281 281 277 282 277 274 277 273 274 271 270 276 277 273 270 273 273 275 274 279 280 281 282 284 285 286 287 287 286 286 288 289 290 290 289 288 288 288 288 287 287 286 286 286 286 286 286 287 289 288 288 290 290 290 291 291 291 292
284 281 279 275 271 276 276 272 275 272 277 279 278 280 278 278 279 279 283 284 281 281 281 281 282 282 280 281 278 276 280 280 277 277 278 276 271 269 276 279 278 272 271 272 269 269 271 276 278 279 282 283 284 285 286 286 287 288 286 286 288 289 289 288 288 288 289 288 288 287 287 287 286 286 285 286 286 287 288 289 289 289 289 289 290 290 291
284 284 282 279 273 277 279 272 273 277 279 280 281 282 281 281 283 282 283 284 282 282 282 284 284 282 278 277 278 279 280 280 275 278 278 271 270 275 280 274 269 271 269 268 269 270 273 276 277 281 282 283 284 285 286 287 288 288 288 289 289 289 290 289 289 289 289 289 288 288 287 286 286 286 287 286 286 286 287 288 289 289 288 288 288 290 290
281 284 281 273 271 276 274 277 281 282 283 282 282 283 285 285 282 280 284 286 284 284 282 283 279 279 278 282 282 276 277 279 274 275 277 275 277 273 271 270 270 272 273 271 271 275 277 278 279 282 283 284 285 286 286 286 286 287 288 288 289 289 289 289 288 288 288 288 288 288 287 287 287 286 286 286 286 286 287 288 288 288 288 288 288 288 288
285 282 277 276 278 278 277 281 280 278 281 282 283 283 283 283 282 283 285 285 283 283 283 282 279 279 275 280 277 276 273 277 271 271 276 274 269 267 268 266 267 267 272 275 274 276 277 278 280 283 284 284 285 286 286 286 286 286 287 289 289 289 289 289 288 288 288 288 288 289 289 289 289 288 287 287 286 287 288 289 289 288 288 288 287 287 288
281 279 282 280 278 279 281 282 280 279 281 282 281 282 282 281 281 283 286 284 283 283 283 283 282 279 278 278 273 274 273 276 274 275 271 269 270 272 270 266 269 270 272 276 277 279 280 281 282 283 283 284 285 285 286 287 287 286 288 287 289 289 288 288 288 288 288 288 288 288 288 288 288 288 288 287 288 289 289 288 288 288 288 288 288 287 287
285 281 280 282 278 277 278 274 275 276 278 279 280 281 281 280 281 282 286 284 284 281 280 277 278 276 274 273 272 268 271 277 273 271 271 270 274 272 269 267 270 275 277 279 280 281 282 282 282 283 284 284 285 285 287 287 288 287 287 289 290 289 289 288 288 288 287 288 288 287 287 287 288 288 288 289 288 288 287 287 288 288 288 288 288 288 287
281 278 278 281 282 282 282 282 282 281 282 282 282 283 282 281 284 285 288 285 282 277 275 279 277 274 272 269 272 275 277 275 271 272 269 273 276 272 272 274 276 278 278 278 279 282 283 284 284 284 284 284 285 286 288 289 287 288 289 289 289 287 288 288 289 289 288 287 287 286 286 286 287 287 287 287 286 285 285 284 286 287 287 287 287 288 287
Wind_Speed
29 28 29 29 29 30 29 28 27 25 27 11 9 5 3 3 4 3 4 4 1 2 2 4 2 2 3 12 5 6 4 5 5 5 3 4 3 3 2 3 4 2 3 3 5 7 3 3 4 5 6 8 1 2 6 1 4 3 3 5 3 3 1 1 5 3 6 6 6 9 11 12 10 5 3 3 3 0 3 4 2 1 1 1 0 2 8
30 29 29 29 29 30 30 29 27 23 19 8 7 3 3 4 4 4 4 4 5 2 2 4 7 4 5 4 7 8 7 7 8 5 3 1 3 3 3 4 1 4 4 4 4 2 2 1 3 4 2 2 3 2 5 6 2 2 2 2 4 1 2 2 3 4 4 5 4 5 4 5 2 4 5 2 1 2 1 1 2 1 5 6 4 6 8
29 29 29 29 30 30 30 31 30 26 18 11 2 2 3 4 3 2 2 4 7 2 2 1 2 3 5 5 7 7 4 6 8 8 4 4 2 2 2 3 3 3 4 6 6 4 4 3 3 5 5 5 3 7 10 9 4 4 6 7 3 3 2 1 1 4 6 3 1 0 4 6 5 2 5 6 6 5 6 2 2 1 2 3 3 5 9
29 29 28 29 29 30 30 30 31 29 24 15 3 2 2 2 3 5 6 6 6 1 7 4 4 3 5 6 4 4 5 5 7 8 2 1 1 1 3 4 5 4 4 3 3 4 4 4 2 4 4 3 4 7 4 4 6 9 12 6 5 1 0 2 3 4 6 6 4 5 7 5 5 10 8 9 6 4 0 2 0 4 2 4 5 6 7
29 28 28 28 29 30 31 31 31 30 28 19 2 3 2 3 1 2 4 6 2 4 5 5 5 4 4 3 2 5 5 5 7 6 1 0 2 2 1 3 3 2 4 3 4 3 6 6 6 4 6 2 5 12 10 6 10 12 6 8 5 2 1 4 5 8 9 6 8 6 7 11 12 10 12 8 4 2 4 4 7 2 4 10 4 0 4
28 29 28 28 29 29 30 31 31 32 29 27 2 3 4 2 2 3 1 2 4 8 6 9 10 9 6 3 3 5 5 4 3 4 6 6 6 1 1 1 3 6 5 5 3 1 4 4 5 5 3 5 10 12 9 7 2 2 2 3 3 4 3 5 5 9 9 7 8 7 7 8 11 14 13 12 5 4 2 4 6 3 3 8 7 5 5
27 28 27 28 29 28 29 30 30 32 33 19 4 4 3 3 2 1 6 4 5 5 9 13 12 8 6 3 4 5 5 5 5 4 1 3 4 9 1 1 5 6 7 4 3 4 4 3 3 3 5 4 5 4 9 6 10 7 5 3 2 2 3 4 8 10 7 6 7 8 10 7 9 11 11 8 4 4 5 8 6 5 6 8 11 8 8
26 27 28 28 29 28 28 29 30 31 33 16 6 7 3 4 4 5 5 2 6 6 4 6 8 5 6 3 3 5 3 5 5 6 5 2 4 7 5 9 11 10 10 5 2 4 1 1 0 3 3 8 2 3 3 6 8 6 4 3 1 1 3 5 4 5 5 4 5 4 8 7 11 13 8 4 4 7 8 5 7 7 5 6 6 7 13
25 26 26 28 28 28 27 28 29 29 27 7 7 5 5 3 3 3 4 6 4 5 5 5 6 5 5 3 4 4 3 3 6 5 7 4 4 4 6 7 6 7 7 7 7 7 1 3 3 1 1 2 1 1 3 9 8 9 7 3 3 4 2 3 3 3 3 2 5 9 6 9 13 13 5 4 5 7 6 7 7 5 8 9 6 9 11
24 25 26 26 26 27 27 27 27 26 21 6 5 5 6 4 3 4 3 2 4 6 5 6 4 4 2 3 6 4 5 6 9 4 3 3 4 6 10 7 6 4 6 5 5 8 8 5 3 2 3 4 4 4 7 8 8 5 4 3 4 0 3 4 3 5 3 1 1 5 5 8 12 9 4 7 8 8 7 6 5 7 5 6 7 7 10
23 24 25 25 26 25 26 26 25 25 15 10 7 5 6 7 7 6 2 2 4 3 5 6 5 2 9 9 13 10 2 3 5 3 3 7 9 13 8 7 5 3 3 3 5 6 9 8 6 5 7 7 7 6 8 13 12 10 7 4 1 2 2 3 1 4 2 2 3 5 7 9 8 2 3 2 3 4 5 6 7 9 5 6 7 8 5
22 23 23 24 24 24 24 25 24 24 16 7 4 5 5 5 4 2 2 2 5 5 4 4 6 8 9 11 7 8 10 5 3 1 2 3 6 7 8 5 3 4 2 7 3 4 7 8 10 12 11 11 10 11 13 15 14 12 10 8 4 6 5 4 1 4 4 1 2 2 8 15 1 2 4 5 6 5 7 9 7 2 2 3 4 5 6
22 22 23 23 23 23 23 23 24 23 22 11 7 5 6 5 3 3 3 2 3 5 5 8 11 8 10 10 8 8 9 7 5 5 3 3 4 4 3 2 3 6 5 7 1 5 4 2 5 7 11 11 11 14 17 17 16 14 11 12 10 6 5 4 3 3 3 2 3 3 15 5 3 2 4 5 6 3 4 7 2 5 4 3 4 4 4
21 21 21 22 22 23 22 22 23 23 23 16 8 7 6 7 5 4 3 3 6 3 5 9 8 9 9 9 9 9 7 6 5 6 5 2 4 5 5 4 3 3 3 5 5 3 4 2 3 3 5 6 8 8 11 15 18 16 16 16 13 10 5 5 6 5 7 3 5 9 7 13 8 4 1 0 1 1 2 2 4 4 2 3 2 3 5
20 21 20 20 21 21 21 21 21 22 22 20 7 7 5 6 5 3 3 1 4 8 5 1 8 8 7 8 7 7 5 5 7 4 6 5 4 1 5 6 4 3 1 3 3 3 0 1 2 2 3 3 3 3 8 6 4 15 21 17 14 15 11 5 7 4 8 7 5 3 3 11 3 2 3 1 3 6 5 3 5 3 2 3 4 1 2
19 19 20 20 20 19 20 20 19 21 21 20 8 7 5 4 4 4 3 1 3 4 0 7 10 10 4 4 6 6 4 5 6 5 5 5 6 9 7 11 5 5 1 2 2 1 1 0 3 1 2 2 6 7 3 4 5 8 4 9 17 16 15 12 10 5 4 5 7 5 6 7 3 8 4 4 5 6 4 3 5 1 3 3 3 3 3
19 19 18 19 20 19 19 18 19 20 19 19 9 7 5 6 5 4 4 2 1 7 10 12 7 7 6 5 7 5 2 2 4 4 3 5 8 11 10 5 4 1 1 2 1 2 1 3 2 4 4 6 7 5 8 5 5 4 7 10 6 2 8 9 7 8 6 4 4 7 2 4 2 7 4 4 2 2 6 4 5 3 4 5 2 2 1
18 18 18 18 18 18 18 17 18 18 18 18 9 7 5 6 7 4 3 3 4 5 2 8 12 7 6 5 5 6 5 2 4 2 1 3 5 5 9 1 5 3 2 2 0 1 1 1 3 3 5 4 7 7 6 5 6 4 5 6 6 5 2 7 13 8 7 6 5 4 4 2 4 2 1 1 1 3 2 5 1 2 5 3 3 0 1
17 18 18 18 17 18 17 16 17 18 17 18 9 6 4 7 7 3 2 4 3 5 7 14 10 5 6 7 3 4 3 4 3 3 5 5 1 10 8 4 0 2 0 1 1 1 1 2 2 3 4 4 3 4 4 4 3 3 5 5 4 5 3 1 2 4 6 6 6 6 2 1 1 7 5 4 3 1 1 5 5 5 3 0 1 1 3
18 18 18 18 17 17 17 16 16 17 17 17 10 4 7 8 6 3 4 3 2 8 11 10 4 11 9 7 6 4 8 6 3 3 3 3 6 12 8 4 4 4 6 3 1 1 1 3 3 2 5 4 4 3 4 5 4 5 4 4 3 2 2 4 5 2 1 1 2 2 3 1 6 1 1 2 1 4 3 7 5 3 4 4 2 2 2
17 17 18 18 17 16 15 16 16 16 16 16 11 6 7 5 5 3 3 2 4 7 7 4 11 14 9 9 7 8 5 5 5 5 2 2 3 4 1 1 6 5 3 2 1 2 2 3 3 2 2 4 4 5 3 4 6 6 5 4 4 4 4 3 2 4 2 2 1 1 2 5 2 2 4 3 6 4 8 5 4 1 1 1 0 0 0
17 17 17 16 16 16 15 15 15 15 16 16 13 5 5 6 8 6 6 5 3 5 5 13 11 12 14 11 11 8 8 9 8 2 2 3 0 1 4 6 6 3 1 1 2 2 1 2 1 2 2 3 2 2 3 6 5 3 9 5 4 2 4 1 3 1 0 2 2 3 3 3 3 3 5 5 8 7 1 1 0 0 1 0 1 3 3
17 17 17 16 16 15 14 14 14 15 15 15 10 4 6 7 7 7 6 5 4 5 6 8 9 11 12 13 13 12 10 7 3 4 2 2 3 2 3 2 3 2 3 5 4 2 1 3 2 2 2 1 2 5 5 3 3 2 4 3 6 5 5 0 1 2 5 7 6 3 3 5 6 4 4 5 5 1 2 2 1 1 3 2 3 4 4
17 17 17 16 15 15 14 14 15 16 15 14 9 5 5 5 7 6 4 3 3 7 5 3 4 5 4 8 3 4 7 10 7 4 4 7 3 2 1 2 0 2 1 1 2 3 2 1 2 1 2 2 4 4 4 4 4 3 4 4 2 4 5 6 3 4 5 4 5 7 8 7 7 8 6 6 2 2 0 0 1 2 3 4 4 5 4
17 17 17 16 15 14 14 15 16 15 15 14 10 6 6 6 4 3 4 5 4 4 4 7 8 9 10 10 11 5 4 7 6 2 5 4 6 4 5 3 3 2 4 3 1 3 0 1 2 1 4 2 2 7 3 5 7 2 5 3 4 4 3 9 5 7 4 8 8 9 7 6 8 5 6 6 6 5 4 3 2 2 1 2 4 4 5
18 18 17 16 15 14 14 14 15 15 14 15 12 6 5 6 5 5 5 4 4 2 5 5 7 10 8 14 11 9 14 11 7 6 3 7 9 10 7 1 1 2 2 1 0 1 1 1 1 2 4 5 3 6 5 4 6 3 5 8 5 5 5 5 3 6 8 9 9 6 8 11 4 7 8 9 5 3 5 5 7 4 3 3 4 4 7
18 17 17 16 15 14 15 15 15 15 15 15 8 6 7 6 4 5 4 3 3 3 3 5 4 8 11 16 16 12 11 8 5 4 5 7 6 1 5 4 4 2 2 2 2 3 1 2 2 5 4 5 2 5 5 7 6 6 7 8 4 4 8 5 4 5 5 5 6 4 7 9 7 5 8 8 7 4 2 3 7 10 6 4 5 6 6
18 18 16 15 16 16 16 16 16 16 15 16 10 6 7 7 6 6 6 4 4 3 4 6 7 8 12 14 11 9 11 11 8 7 8 8 7 7 4 6 7 4 2 2 3 1 2 3 5 2 3 3 3 5 3 6 4 4 7 9 4 6 8 5 5 4 6 5 5 3 5 8 9 9 8 6 7 9 7 6 8 8 7 7 6 6 6
18 18 18 17 17 17 16 16 16 15 17 14 7 8 7 9 8 6 6 5 3 3 3 5 7 8 5 7 11 11 11 10 10 10 10 11 10 5 4 3 5 6 4 2 1 0 2 4 2 3 3 2 2 5 1 3 3 7 9 6 4 5 5 7 8 8 9 7 6 4 5 8 7 6 7 8 7 7 8 6 5 5 8 8 7 8 6
19 19 19 19 18 18 18 17 16 15 14 7 5 4 4 2 3 1 2 1 1 3 1 3 7 3 5 6 8 11 12 13 12 12 9 6 5 4 4 5 5 4 3 3 2 5 3 3 2 3 2 5 3 2 2 3 5 9 11 10 9 7 6 7 6 7 9 5 5 4 4 5 5 5 6 8 6 4 4 6 6 6 4 6 8 6 3
20 20 20 21 20 19 17 16 15 15 12 4 3 3 2 2 1 3 4 3 5 2 1 2 6 5 7 3 5 11 11 10 8 4 4 3 1 1 2 3 3 1 0 1 2 2 1 4 1 3 2 6 6 3 3 2 5 8 10 5 7 7 7 9 6 7 7 4 3 4 6 6 6 6 6 5 4 4 5 5 6 5 4 4 4 4 3
21 22 22 21 20 19 17 16 15 12 5 4 5 3 2 1 3 3 3 4 1 2 1 3 4 3 3 4 3 6 11 7 5 3 3 1 3 0 2 1 2 2 2 0 0 1 3 4 4 6 6 4 5 2 2 4 9 14 9 4 7 9 8 8 8 5 3 3 5 6 7 7 5 6 6 5 6 7 9 6 2 1 2 1 2 1 2
22 22 22 21 20 19 17 16 14 9 5 7 12 16 16 17 13 6 5 3 2 1 1 1 4 2 3 4 8 9 3 2 4 2 4 1 3 1 3 3 3 3 4 4 2 3 3 4 3 6 6 3 2 2 3 9 12 12 12 11 9 9 9 6 4 4 4 1 1 3 9 9 7 7 7 5 6 6 4 4 6 4 2 6 7 4 3
24 24 24 23 21 19 18 16 15 12 8 3 4 4 2 5 6 5 3 0 1 2 0 1 2 3 5 5 6 3 1 2 3 3 3 2 2 1 3 1 2 1 2 4 3 2 1 1 4 4 2 4 1 1 6 11 10 11 11 11 11 8 3 5 6 7 8 5 5 10 13 9 7 6 5 5 5 4 3 3 5 4 2 2 4 5 2
26 25 24 24 22 19 17 15 6 1 2 4 3 0 2 6 6 6 3 1 0 1 1 2 1 3 4 3 4 4 4 4 3 3 3 4 0 3 1 1 1 1 3 3 2 4 3 4 3 2 4 2 2 3 5 8 11 10 9 8 4 4 5 4 4 5 5 5 2 2 3 4 5 5 6 6 5 3 3 3 1 2 0 1 6 1 5
26 27 26 25 25 16 5 3 3 1 2 2 2 6 11 8 4 1 2 1 1 1 1 2 1 4 3 5 4 2 3 5 3 3 2 2 3 0 2 1 4 5 2 2 3 1 3 1 2 3 1 2 4 4 3 7 10 9 9 7 5 4 5 5 7 6 5 0 4 6 5 3 3 4 5 6 6 5 3 3 3 1 3 3 9 6 6
26 26 28 22 7 2 0 0 2 1 1 3 1 1 5 2 1 2 2 2 1 1 1 1 4 5 2 3 2 2 2 3 2 3 3 2 2 1 3 1 3 2 1 2 3 4 5 3 3 3 1 4 4 3 5 6 9 10 10 9 7 5 5 4 4 5 5 1 3 3 3 3 4 4 5 6 6 6 5 6 6 5 6 8 6 6 4
26 25 10 5 3 1 2 2 1 3 7 9 2 3 1 1 2 2 2 1 2 3 3 2 6 4 2 2 4 3 2 2 4 2 2 1 1 2 0 1 3 1 4 2 4 3 2 0 2 2 4 1 5 7 7 8 7 7 8 8 7 5 4 1 3 2 4 2 2 4 5 4 4 5 6 6 6 8 7 6 3 5 6 6 7 6 6
16 6 4 4 2 1 1 3 4 11 8 4 3 0 1 1 0 1 2 2 1 3 2 3 5 6 5 4 6 2 2 3 4 2 3 1 2 3 0 2 2 2 3 2 4 3 1 1 1 0 5 1 5 5 7 8 7 6 7 9 9 6 4 3 1 4 4 5 6 7 7 6 6 6 6 7 7 6 7 2 6 7 7 7 7 6 7
6 6 4 4 2 3 4 6 11 9 3 2 1 1 1 1 2 2 3 2 2 2 1 4 4 4 6 4 1 4 0 2 3 3 3 5 1 2 1 1 1 1 3 1 2 2 1 3 1 1 3 3 5 5 8 9 8 7 7 6 8 5 2 1 5 6 7 7 8 7 6 5 5 5 6 6 7 6 2 6 6 7 7 6 5 5 6
5 5 4 3 4 4 5 8 6 3 1 1 0 1 0 1 2 1 1 2 2 1 4 2 1 2 3 4 1 3 1 0 2 1 2 4 1 0 1 1 0 2 1 3 1 0 1 2 2 2 2 4 6 8 10 9 7 5 3 5 7 3 5 9 9 9 8 7 7 6 6 6 6 6 6 7 6 4 7 8 7 7 9 9 11 10 9
6 6 6 8 8 8 8 3 2 1 1 1 0 1 1 2 1 2 2 1 1 1 1 1 2 0 3 3 3 1 2 0 2 2 0 2 0 1 1 1 0 0 2 1 1 2 1 2 2 2 4 5 5 8 9 6 5 7 5 3 3 6 6 8 10 9 9 8 7 6 7 8 8 8 7 8 9 8 6 11 12 12 11 11 12 12 12
21 16 8 4 3 2 1 2 2 1 0 1 1 1 1 1 0 1 2 0 2 0 1 2 2 1 1 1 3 1 4 2 1 1 0 1 1 0 1 1 1 2 3 3 1 1 1 2 2 3 6 6 6 7 8 7 5 4 4 5 3 2 6 9 10 10 9 9 9 7 7 8 10 9 8 9 11 13 10 11 12 12 11 12 13 13 13
9 6 3 2 2 2 1 2 0 1 1 1 1 1 1 3 3 1 2 1 2 2 0 3 3 5 4 1 3 3 2 2 1 1 2 0 0 1 1 1 1 2 1 1 1 3 2 2 1 5 6 6 6 8 8 6 4 4 4 4 4 4 7 9 10 10 9 8 8 8 8 8 9 10 9 10 12 12 10 11 12 13 13 12 11 10 8
4 2 1 2 1 1 1 1 1 1 2 1 2 2 1 4 3 3 3 1 1 2 3 3 3 4 4 3 2 3 1 1 2 1 1 1 2 1 1 2 1 1 1 2 0 2 1 2 3 4 7 9 9 9 7 7 4 4 4 3 4 6 7 8 8 7 7 8 7 8 8 7 11 13 13 12 10 10 12 12 11 13 11 10 8 5 2
2 2 2 2 3 1 1 1 1 2 1 2 2 2 3 3 2 2 0 2 2 3 3 3 4 3 5 3 2 2 1 1 2 1 1 1 1 2 1 2 1 2 1 1 2 2 2 4 4 5 7 9 9 9 7 4 3 3 4 2 5 7 8 7 6 7 7 8 7 7 6 6 8 8 9 12 12 11 12 12 12 11 11 12 11 10 10
3 1 1 1 3 2 1 1 2 2 2 5 7 6 4 3 1 2 2 1 0 2 2 2 3 2 4 4 2 2 0 1 1 1 1 1 1 1 1 0 1 1 2 3 2 2 4 4 3 5 7 9 10 8 4 4 4 3 5 5 4 5 6 7 8 9 8 9 9 9 7 7 8 9 12 13 11 10 10 12 13 13 12 11 11 12 13
4 1 1 1 2 1 3 3 3 5 5 5 5 5 4 0 0 4 3 2 2 2 2 3 4 2 3 1 1 3 3 1 1 3 1 1 0 1 0 0 1 1 1 2 3 3 4 3 4 6 7 8 8 7 5 6 7 6 5 4 3 5 5 8 9 9 8 9 9 8 7 8 8 8 10 10 9 10 10 10 10 10 11 12 13 13 12
2 1 2 2 2 2 3 4 7 9 8 8 6 6 5 3 1 3 2 1 2 2 2 1 2 1 3 1 2 2 2 0 1 1 1 1 0 1 0 1 1 2 0 0 2 3 4 3 3 4 6 6 6 5 4 4 4 5 3 1 3 4 5 7 8 9 9 8 8 8 7 6 6 6 7 8 10 9 8 9 10 10 10 11 11 11 11
1 2 2 3 4 5 5 7 7 8 6 5 4 4 3 3 3 4 0 2 2 2 2 3 2 2 1 0 2 1 2 0 0 1 1 2 1 1 1 3 1 2 3 3 3 3 2 3 3 4 5 5 6 6 5 5 5 5 2 4 1 3 4 5 6 7 7 7 7 8 8 8 8 8 9 8 7 6 7 8 9 9 8 7 8 9 9
1 2 3 3 5 5 3 3 4 6 7 7 6 5 3 3 1 3 1 2 1 1 0 1 1 2 1 1 1 1 0 0 2 2 1 2 0 0 1 2 2 3 4 3 3 1 1 1 2 4 5 5 5 6 5 3 1 3 4 4 1 3 4 5 7 7 7 6 6 7 6 6 7 9 8 7 7 8 8 7 6 7 7 6 6 6 6
2 3 3 3 5 7 8 8 8 8 9 8 6 4 3 4 0 2 1 0 1 1 2 1 1 1 1 2 1 1 1 1 2 1 2 0 1 0 2 2 4 6 4 3 4 1 1 0 1 4 5 5 6 6 5 4 3 6 4 1 1 3 3 3 5 6 6 5 5 5 5 5 6 6 5 6 6 5 6 5 3 4 4 4 4 4 5
Wind_Direction
6 4 2 360 358 356 355 355 356 0 359 15 345 322 334 347 285 272 253 240 36 3 303 290 352 324 350 344 324 352 343 340 349 334 329 293 36 359 13 8 18 331 335 341 335 325 297 327 279 318 333 324 145 41 101 70 41 78 3 56 327 8 72 337 283 268 267 270 265 261 267 287 306 323 1 39 18 291 179 183 192 175 194 121 113 185 269
7 5 3 1 358 356 354 352 353 359 15 356 305 314 338 305 287 307 282 27 38 64 270 330 323 320 339 9 339 353 340 335 313 275 289 46 4 3 323 325 297 295 315 290 275 317 342 209 306 295 326 291 9 256 87 104 31 94 213 118 266 37 297 101 325 338 346 344 321 298 9 47 89 292 297 308 344 13 307 166 175 130 213 178 139 240 269
7 6 3 2 359 357 354 352 348 350 356 354 310 342 300 285 261 224 337 6 51 25 296 326 273 302 349 9 346 336 331 316 309 314 279 5 331 4 300 285 320 295 354 320 326 309 266 294 294 286 282 275 282 309 286 107 113 127 152 152 128 113 226 64 252 258 278 275 172 31 336 324 303 280 311 323 332 325 16 4 360 132 269 206 171 243 255
7 6 4 2 1 358 356 352 348 343 346 354 352 267 331 326 334 314 336 357 355 353 344 333 5 19 16 357 304 314 299 306 321 352 348 77 298 194 340 334 2 321 327 309 316 322 324 314 330 325 312 304 315 312 15 172 122 152 154 142 94 149 204 139 179 192 228 205 256 304 335 318 310 296 291 286 291 298 344 100 306 235 258 326 243 236 285
8 7 5 4 2 360 357 355 349 345 338 348 340 288 195 291 62 345 321 321 357 342 342 6 30 337 346 321 332 301 305 290 294 112 286 37 332 7 327 332 333 297 326 297 300 292 301 292 296 297 298 305 305 321 333 5 147 158 167 124 92 100 201 228 220 242 245 260 276 292 300 286 293 306 296 289 283 345 346 303 259 205 352 287 254 224 321
8 8 6 5 4 2 359 356 352 346 341 337 344 11 2 17 312 42 349 237 290 357 328 348 330 321 330 273 305 285 299 334 321 319 280 308 248 204 29 316 335 328 310 307 289 264 266 276 273 295 315 354 352 340 339 343 52 261 45 111 121 153 189 234 199 249 246 250 261 265 269 263 264 263 266 278 327 8 293 252 257 286 204 243 266 247 257
9 8 7 6 5 4 1 359 354 351 340 334 16 31 350 51 320 337 35 12 318 313 291 303 287 285 296 282 277 284 280 279 285 285 310 5 355 14 335 233 240 243 275 316 308 340 317 322 352 41 339 360 353 331 333 329 357 353 322 250 175 86 224 225 208 238 234 239 252 258 259 268 278 274 271 280 314 294 283 278 273 254 253 248 266 283 255
9 8 7 7 6 5 4 2 0 353 344 336 62 47 10 13 358 328 349 318 289 286 311 302 300 269 256 275 254 281 276 295 304 302 327 17 352 9 358 343 12 1 346 31 5 343 163 197 247 342 34 343 355 310 259 300 324 337 320 340 286 118 261 203 236 269 263 221 241 296 287 277 271 272 284 318 309 286 276 282 279 287 293 290 303 305 291
9 8 8 8 7 6 5 5 4 359 349 25 11 58 29 325 334 323 306 316 292 308 311 313 314 318 305 269 279 278 334 310 15 348 354 354 352 344 308 327 7 344 328 324 316 311 216 139 163 226 94 243 316 44 311 336 312 319 315 311 336 34 256 329 289 290 292 178 224 250 269 282 280 286 325 313 283 277 267 254 244 249 255 270 295 287 276
8 8 8 8 8 7 7 6 6 6 355 31 345 18 360 336 321 342 360 294 299 323 297 281 313 284 307 343 301 291 13 344 8 352 318 352 337 13 358 16 21 351 349 320 340 340 328 322 297 225 233 215 239 249 282 290 291 295 277 342 314 165 334 339 344 308 256 110 16 329 358 354 301 285 219 215 230 233 242 250 238 214 210 251 258 251 250
9 8 8 8 8 7 6 7 7 9 9 22 357 330 359 13 338 338 338 323 297 298 315 296 283 349 339 358 357 353 321 14 43 30 301 358 340 348 349 354 352 306 279 283 346 352 346 327 321 336 312 306 299 285 273 274 270 260 269 288 283 330 294 263 319 265 296 74 41 1 4 279 250 155 190 156 233 236 239 248 241 250 205 218 212 248 277
8 8 7 7 7 7 6 6 6 8 11 356 316 293 334 339 320 296 334 344 282 303 297 288 349 331 326 352 346 2 353 10 322 63 6 342 314 317 322 307 356 306 254 297 355 354 355 349 349 341 325 291 262 263 266 262 256 257 262 257 258 252 261 257 224 269 262 76 68 339 257 253 171 185 276 279 267 283 272 271 267 286 2 358 357 340 16
6 6 6 6 6 6 6 4 6 6 6 358 348 333 307 344 15 352 309 299 275 333 336 324 328 325 356 346 351 346 342 343 355 348 311 294 290 300 284 251 257 256 268 282 281 311 305 341 327 307 305 308 296 279 268 263 261 251 240 237 240 232 209 228 245 219 309 294 133 227 244 271 349 310 306 299 314 341 21 325 322 32 13 21 0 8 37
4 4 5 5 4 5 5 5 4 4 3 1 345 329 328 13 15 356 360 360 299 298 338 322 317 346 352 349 342 333 339 339 351 10 333 314 293 249 250 251 259 1 27 27 14 18 16 21 325 352 304 307 293 291 259 247 242 240 233 229 226 221 197 190 247 176 228 216 172 226 294 297 281 284 306 101 143 159 137 237 277 304 349 86 81 30 8
1 0 1 1 1 3 4 3 2 3 1 359 331 334 344 19 6 352 306 282 292 301 265 227 336 332 344 332 325 313 327 329 356 316 319 302 266 318 300 280 250 121 105 66 25 37 31 25 326 335 313 326 322 285 319 298 265 224 227 228 212 216 224 189 192 221 176 215 260 291 291 265 324 225 154 227 162 137 163 99 299 353 18 86 100 60 9
359 358 358 360 360 360 2 1 1 1 2 357 346 340 333 22 9 3 336 311 301 311 245 13 345 329 315 310 344 20 0 5 335 339 338 332 329 333 330 4 355 66 27 96 119 89 18 21 271 293 248 272 274 292 267 322 296 308 302 217 220 215 210 209 199 224 154 186 222 231 237 255 163 219 189 207 189 149 121 65 299 288 347 20 23 27 2
357 355 356 358 360 358 359 1 360 1 0 2 346 338 319 356 20 358 332 315 289 247 303 323 348 344 338 331 9 347 28 10 345 338 348 333 328 325 315 357 320 296 360 89 182 127 178 202 230 234 259 262 266 255 290 275 294 309 320 319 334 171 201 217 228 234 222 216 222 244 212 261 213 160 185 202 182 118 65 333 282 282 312 308 73 59 44
354 353 353 356 358 356 357 358 359 358 359 359 351 325 310 356 347 339 328 314 317 283 245 19 358 339 355 350 321 334 326 352 338 332 217 266 297 315 302 27 334 11 91 19 110 46 280 238 264 273 274 279 290 306 264 307 297 295 303 310 311 320 360 161 213 222 259 264 276 328 305 16 20 30 229 294 282 67 98 226 235 238 254 259 135 219 246
352 352 353 352 354 354 353 355 357 358 358 359 349 320 328 329 318 335 317 302 311 276 314 339 309 343 344 332 348 332 9 341 310 352 329 337 40 355 319 334 331 300 113 215 132 187 175 256 252 257 275 272 267 254 303 287 280 313 316 325 337 321 322 224 116 183 197 190 193 217 188 111 331 301 360 323 337 44 202 227 240 255 264 201 162 290 294
350 350 351 350 349 350 351 352 355 356 357 357 358 330 307 304 300 320 342 319 316 285 295 287 329 351 338 342 343 345 338 346 12 22 328 285 343 354 12 352 345 22 336 344 303 193 197 236 230 267 254 261 254 324 311 285 320 301 331 324 307 299 346 293 316 283 299 153 236 314 295 234 197 238 61 3 107 221 278 306 304 336 343 4 359 33 347
346 348 348 348 344 344 348 349 350 351 351 355 355 329 320 312 328 350 15 345 309 313 297 314 344 326 322 307 291 292 284 267 282 295 271 284 339 13 323 277 332 337 319 30 295 312 352 315 324 278 284 309 320 1 281 333 319 315 342 341 329 321 311 314 339 29 305 346 305 243 191 273 246 31 306 230 198 237 280 275 288 303 116 144 180 327 159
344 346 345 344 342 340 342 344 345 345 347 347 348 329 307 334 326 336 346 316 264 239 261 303 302 287 282 272 268 253 246 257 270 262 9 333 309 230 252 289 300 294 300 350 294 313 323 290 315 310 346 345 13 239 327 339 294 307 333 347 333 3 5 355 291 241 198 234 257 284 253 227 224 212 242 234 245 254 255 175 204 55 315 227 185 242 256
342 341 342 342 340 339 337 338 343 345 342 342 342 326 321 315 313 327 325 303 287 285 281 278 275 275 266 267 254 248 252 257 233 191 212 166 302 301 291 309 295 333 3 28 18 336 305 46 271 339 335 199 336 316 320 265 280 339 294 298 278 342 32 245 170 288 337 307 253 268 315 329 327 285 264 279 287 223 110 120 94 226 214 201 214 245 253
339 337 337 337 336 335 333 334 338 338 338 338 340 313 314 315 294 305 310 302 292 303 290 235 4 315 304 308 291 190 211 240 231 207 155 134 191 270 319 274 311 24 41 133 157 72 317 349 262 19 278 302 3 297 281 292 262 313 306 309 275 338 20 7 337 298 359 283 2 331 299 293 294 299 314 319 42 86 164 170 236 234 223 217 231 233 254
335 335 333 333 331 329 328 330 332 334 335 335 335 311 299 286 293 332 339 327 334 352 318 318 290 256 295 326 342 330 360 330 322 209 159 161 174 179 226 225 145 183 273 301 62 43 34 332 328 285 270 267 174 262 192 257 272 250 275 285 20 309 20 343 296 308 295 274 297 302 313 333 315 339 357 333 325 308 297 262 225 221 260 250 240 227 247
333 332 331 330 328 325 324 325 330 330 330 331 328 311 304 298 304 305 288 263 262 261 283 297 293 313 343 347 334 324 310 300 281 293 241 202 194 198 219 202 289 119 188 191 97 195 185 227 213 285 292 273 184 251 254 225 274 315 268 265 236 263 329 255 278 277 276 279 280 297 334 315 348 346 329 312 301 297 287 305 293 265 276 286 280 229 229
331 330 331 329 326 324 321 323 327 324 325 327 324 303 285 275 261 253 247 285 340 279 205 246 292 319 348 325 306 304 302 303 303 298 298 298 289 179 169 200 209 228 213 279 200 181 158 195 185 253 220 254 306 271 281 289 282 283 278 268 268 284 253 261 281 287 272 264 282 339 313 297 299 290 286 293 303 276 239 288 287 272 246 242 252 270 268
329 328 327 325 322 320 320 319 321 321 321 321 312 290 278 268 244 240 252 231 203 265 309 310 305 313 315 276 276 307 321 314 309 303 292 289 276 243 193 185 198 215 208 182 272 144 173 212 249 230 242 300 306 289 267 273 297 278 258 261 233 245 261 260 250 230 260 254 274 259 232 262 263 264 265 277 287 283 248 229 249 248 221 223 228 251 267
326 323 321 319 317 317 317 318 318 319 318 318 307 294 268 246 239 240 239 220 213 272 294 288 295 289 290 318 320 305 303 309 301 285 271 262 267 257 216 196 182 193 193 149 166 198 235 245 189 237 231 173 125 249 271 251 234 251 247 254 250 243 259 272 274 278 268 256 257 238 234 255 276 272 281 280 280 277 271 260 255 252 211 218 223 232 231
322 321 319 318 316 317 315 316 315 314 318 317 291 281 294 60 16 76 341 17 90 94 277 303 304 291 306 298 291 294 293 284 267 263 256 229 224 224 230 231 236 205 188 200 172 247 229 245 239 256 225 125 221 246 201 220 247 255 257 260 257 263 262 263 264 267 281 277 275 283 288 286 283 276 262 268 270 272 270 266 264 273 245 215 219 221 191
322 320 319 316 315 314 314 312 315 314 315 307 300 272 253 143 44 339 10 63 118 137 236 225 272 306 290 242 259 275 276 283 301 323 11 4 1 10 331 10 312 127 246 253 159 246 180 240 210 238 215 180 164 214 224 240 264 268 254 255 275 277 273 274 279 278 284 298 286 274 269 269 272 285 273 253 244 245 263 271 282 284 257 264 207 173 177
321 319 316 314 312 311 309 308 306 311 299 274 251 265 11 354 307 338 9 306 314 259 271 303 293 274 290 303 292 318 302 322 337 351 321 4 308 120 308 180 259 101 125 205 180 32 239 225 227 244 246 164 117 283 229 232 252 258 279 278 272 268 271 282 286 299 304 295 317 316 295 286 264 254 266 265 259 252 249 258 250 249 203 297 292 151 170
319 316 313 310 309 306 303 299 296 287 271 276 288 293 278 258 252 268 281 266 263 219 127 252 266 297 276 292 320 304 302 356 304 350 304 169 248 111 262 198 192 179 165 135 190 215 206 189 206 241 237 195 216 232 238 243 250 266 276 276 273 276 282 290 293 285 266 249 69 292 282 274 272 263 258 275 282 269 257 253 250 231 182 194 200 158 178
317 316 313 308 304 302 297 291 289 287 273 255 271 233 164 160 168 207 248 304 233 237 141 232 269 272 280 306 288 290 360 346 290 289 295 290 240 227 245 235 194 167 189 160 210 213 255 203 217 237 337 244 190 321 262 261 263 273 277 277 273 274 268 280 280 282 282 251 200 223 248 264 273 281 285 276 272 267 252 279 276 265 223 214 215 194 180
318 315 311 306 301 293 287 286 291 213 225 237 223 72 175 197 191 183 192 137 348 225 191 230 209 277 285 281 278 300 15 14 316 318 275 262 301 263 247 253 293 287 272 169 246 186 211 221 160 116 235 198 135 227 242 263 266 264 267 275 288 300 296 287 269 273 286 285 297 302 300 325 330 323 311 302 290 285 293 274 195 118 52 330 288 247 155
317 313 309 304 299 292 286 256 188 201 227 252 262 194 204 201 186 195 236 257 192 305 296 284 300 265 291 295 301 296 22 309 267 278 284 310 313 284 350 269 303 240 221 185 251 229 236 189 84 242 191 219 233 212 281 328 324 322 319 314 306 303 283 277 283 285 275 219 21 326 312 300 303 292 291 296 296 293 276 284 292 237 156 209 252 228 177
313 311 308 305 296 105 131 267 118 126 305 224 292 118 155 133 260 243 195 224 194 91 253 297 259 251 229 278 282 249 78 308 316 332 325 332 287 298 286 325 257 278 325 301 286 269 255 202 179 248 232 246 282 3 8 326 313 312 308 299 293 294 296 280 276 285 293 105 123 255 289 333 338 329 329 329 330 316 303 292 263 234 227 235 211 159 166
311 306 305 316 305 306 98 40 26 291 288 279 142 126 150 178 191 204 158 213 181 155 199 187 245 256 245 204 263 243 182 259 6 303 301 267 328 282 5 278 250 352 291 270 254 253 272 17 258 279 276 67 20 347 340 312 289 284 285 291 290 282 267 292 308 334 63 13 12 8 360 360 352 340 340 332 338 331 319 306 1 50 72 92 91 102 104
307 314 328 333 318 21 11 304 330 318 289 235 159 342 230 186 230 230 209 183 159 201 178 193 246 230 222 242 263 273 31 304 289 349 322 340 31 301 209 316 327 29 286 326 294 58 321 281 272 73 256 38 355 318 314 307 313 309 322 330 335 317 7 332 3 65 69 51 34 31 18 0 343 337 341 334 321 314 298 345 72 78 87 87 93 100 102
348 349 340 320 351 332 321 323 336 322 282 279 180 139 258 196 196 252 155 196 201 156 138 221 219 220 212 235 308 316 13 37 357 298 279 298 193 247 296 293 269 72 268 264 268 62 322 293 252 244 278 14 314 313 325 323 318 321 314 313 320 337 270 236 57 48 56 52 43 33 17 359 341 334 321 313 310 304 20 75 80 86 90 95 96 94 94
353 332 315 303 323 323 310 315 309 269 238 231 211 183 229 254 205 233 273 268 290 213 177 231 326 347 332 346 340 295 305 106 254 244 250 261 229 360 307 287 101 257 265 259 304 215 244 265 270 279 311 300 295 327 324 320 311 301 334 15 334 310 63 59 51 45 45 50 44 37 25 17 5 342 321 325 328 20 71 74 75 75 76 76 77 79 83
308 286 282 288 284 283 288 265 197 269 249 205 323 260 215 240 236 267 160 190 290 357 339 51 305 219 298 352 321 311 282 165 240 223 173 288 333 248 248 255 42 257 275 252 328 272 280 273 297 323 316 311 333 331 330 313 326 332 356 359 62 74 69 70 61 55 52 55 52 47 34 29 24 14 1 19 33 16 42 82 78 72 73 77 81 82 83
292 279 250 248 275 263 229 273 190 177 206 235 121 318 260 297 253 286 306 31 46 336 260 192 237 48 288 47 304 10 282 241 243 331 4 257 309 250 265 265 244 252 258 300 307 293 322 289 304 308 315 327 334 332 324 321 319 349 349 341 340 43 78 79 72 67 63 56 50 41 35 35 36 27 27 40 49 47 31 59 76 79 78 83 86 91 99
288 283 261 173 214 238 181 273 137 40 302 180 146 225 242 262 285 341 311 100 145 248 40 8 339 29 314 13 310 296 289 11 344 245 249 274 355 288 287 262 239 263 233 276 352 326 294 283 264 297 328 328 333 330 323 324 347 350 345 353 342 27 68 74 76 73 64 52 44 42 42 34 38 36 35 39 45 56 57 57 65 79 85 88 90 92 95
307 291 301 307 260 278 43 324 295 161 237 240 204 236 223 254 263 254 247 203 148 289 333 10 17 8 310 300 268 251 180 264 205 190 286 331 266 215 231 263 261 262 278 280 360 259 257 292 314 327 334 327 327 324 320 324 338 340 318 336 43 54 63 74 76 74 67 58 42 37 34 25 40 35 33 27 38 45 55 57 57 67 69 72 73 76 63
299 307 313 294 315 298 177 253 289 292 241 224 242 222 239 260 281 296 340 86 3 350 10 11 349 331 294 281 243 255 286 337 352 269 243 222 247 263 254 267 277 317 327 306 293 272 278 297 338 332 322 318 318 319 310 298 320 318 299 43 77 75 83 90 88 85 77 73 60 49 41 23 37 36 40 37 28 40 49 53 51 60 65 69 67 69 70
275 285 295 307 268 259 192 252 244 239 295 303 295 298 282 278 333 331 298 96 30 80 29 353 341 268 284 287 314 325 292 123 207 241 233 268 223 285 329 7 319 309 303 299 299 313 318 321 335 319 319 322 325 319 316 335 339 9 55 79 82 98 106 97 89 83 82 81 78 70 54 52 54 53 55 49 45 43 48 56 56 56 60 61 59 58 58
293 313 291 263 274 259 243 242 262 277 275 279 296 311 314 35 30 305 316 84 117 73 54 27 321 331 307 295 317 256 267 238 268 264 184 269 246 234 300 360 244 250 192 279 303 295 294 312 323 323 322 324 318 315 349 9 360 30 61 36 56 84 90 98 95 88 81 79 78 70 65 63 59 61 64 64 63 53 54 56 55 56 57 57 56 55 54
261 298 286 283 268 291 294 333 330 301 297 289 291 298 306 321 360 306 289 53 58 59 65 23 277 345 269 355 283 276 293 339 255 266 2 304 269 252 209 274 320 285 227 159 277 285 286 299 331 325 318 319 327 345 352 2 347 2 30 41 84 98 107 107 111 110 102 95 92 89 86 81 78 74 75 73 69 65 62 63 63 62 60 62 63 62 59
286 258 227 242 277 277 278 281 271 274 281 295 320 304 336 351 342 287 111 68 76 26 18 304 221 202 250 267 268 271 259 281 314 321 298 265 264 343 15 293 244 257 293 325 303 283 317 4 335 330 318 325 343 354 358 1 15 350 327 313 275 119 104 105 104 108 116 118 117 116 111 105 96 88 84 83 87 90 76 70 69 69 65 64 68 68 68
197 234 251 223 244 271 317 294 306 311 310 299 297 287 301 299 304 295 48 42 69 69 352 284 333 290 319 273 263 269 261 341 281 250 219 270 360 255 189 228 277 315 292 284 295 317 21 343 337 310 319 332 331 338 334 350 170 235 269 279 232 123 112 107 108 111 111 122 132 130 123 118 119 120 119 113 99 87 82 76 78 84 85 79 75 77 75
252 244 251 245 244 250 249 255 256 256 264 275 282 289 314 282 335 280 131 28 337 58 281 349 324 302 265 240 250 280 305 265 242 300 305 297 88 305 287 295 312 299 294 313 303 325 106 98 347 301 300 314 326 327 320 295 280 288 265 264 20 86 100 119 132 130 123 124 126 123 126 133 141 139 133 118 110 98 95 106 115 108 106 104 110 100 88